Wind_Speed
8 6 8 8 9 11 13 14 14 15 17 14 11 8 10 8 9 11 7 13 9 5 6 6 8 9 10 11 12 10 8 11 12 10 9 11 11 11 12 12 11 9 4 5 13 15 16 15 13 13 15 18 16 14 17 18 20 20 21 21 21 20 22 22 20 21 23 22 21 21 19 19 18 15 16 15 16 17 11 13 19 17 16 16 13 15
8 8 8 11 13 13 14 15 14 16 18 12 8 8 10 8 7 8 7 12 9 4 5 6 9 11 11 11 13 11 11 12 10 10 9 12 11 10 12 16 15 11 9 4 11 14 15 15 15 13 13 18 18 16 18 18 19 21 20 20 19 20 22 22 20 19 21 20 19 18 15 15 15 13 15 14 15 18 14 15 20 18 16 15 13 14
8 8 12 15 13 13 14 12 9 13 16 8 5 8 9 7 5 8 8 7 7 4 4 6 9 12 13 13 13 12 11 11 13 10 10 11 12 9 11 13 14 13 14 13 13 14 13 15 16 14 13 16 17 17 18 18 20 21 20 19 19 19 19 20 20 18 18 17 15 15 13 13 14 13 14 13 15 17 15 15 18 16 14 14 13 12
6 11 17 16 13 15 13 8 5 7 8 5 5 8 8 9 8 7 9 10 9 5 1 5 9 10 11 12 10 10 10 11 15 15 12 12 11 11 12 12 11 13 16 18 16 13 13 14 14 15 14 14 14 15 17 19 21 20 19 19 19 18 17 18 18 16 15 14 14 15 15 14 13 12 12 13 15 14 13 14 16 14 14 14 13 11
11 12 12 15 16 15 10 6 7 6 5 7 8 9 10 11 12 10 10 11 9 4 3 3 8 7 9 12 11 10 11 13 14 16 13 13 12 12 13 12 11 10 14 19 19 14 13 13 14 15 16 16 15 13 12 18 20 19 18 19 19 17 16 16 15 14 14 12 12 14 14 12 11 11 12 14 16 14 13 14 13 13 14 14 12 12
13 12 6 9 9 7 6 7 9 8 6 8 10 12 13 14 14 14 13 11 8 7 6 7 7 6 9 14 15 12 13 16 15 15 16 12 13 12 11 10 10 8 9 15 18 16 14 14 14 14 17 18 18 16 13 14 15 17 18 20 20 18 16 17 16 15 14 11 11 13 13 11 10 12 13 15 18 16 15 16 13 11 11 11 11 13
9 14 10 8 6 5 7 9 10 10 8 7 9 12 14 15 15 15 15 11 7 7 6 8 8 6 7 10 11 12 14 16 14 15 16 12 11 12 11 11 10 10 8 13 16 17 16 15 14 14 19 20 19 19 15 10 14 19 21 23 22 19 19 20 19 18 18 17 15 15 13 10 10 11 13 15 17 15 15 15 12 9 9 10 12 14
9 14 10 8 10 10 8 8 10 12 9 6 9 12 14 14 13 13 13 10 7 7 8 11 10 7 8 7 9 13 13 11 9 11 13 11 10 6 4 5 2 3 2 9 14 16 16 15 16 18 23 24 22 20 15 12 18 22 22 23 23 22 23 23 22 22 23 24 23 20 16 13 11 10 11 14 15 14 14 14 12 11 10 10 12 13
10 11 8 8 8 8 8 10 11 12 10 8 11 14 10 7 8 9 10 9 8 8 8 11 10 8 8 7 9 13 14 11 10 9 5 3 4 4 8 8 8 10 7 8 8 8 9 11 16 20 22 25 26 23 22 22 22 22 20 22 23 23 25 25 27 28 26 25 27 25 23 21 16 11 10 12 13 15 16 14 13 13 12 10 11 11
7 8 10 9 8 8 9 11 12 12 9 9 13 12 5 3 7 9 8 8 7 8 9 10 11 9 7 7 7 8 9 8 7 3 5 7 6 8 10 9 8 9 7 10 8 6 8 9 12 15 19 26 28 25 27 29 26 21 19 20 22 25 26 26 28 30 28 25 25 25 25 25 20 15 13 12 12 14 16 15 13 14 12 10 10 10
6 6 8 9 8 8 11 11 11 9 7 8 10 8 5 5 7 8 6 7 6 7 10 12 13 11 7 6 4 3 0 4 4 6 9 9 9 9 8 8 8 9 7 8 6 5 6 6 4 7 16 22 24 22 24 27 24 19 17 20 23 26 27 26 25 27 27 27 27 27 27 25 23 21 18 14 13 14 16 15 14 14 12 10 10 10
11 8 5 7 6 5 10 10 10 10 9 9 7 5 5 5 6 7 7 7 7 8 10 13 15 12 9 7 4 5 7 10 7 7 8 7 8 9 8 8 9 8 9 7 5 5 5 5 9 15 15 11 15 17 19 21 22 17 16 21 23 23 23 24 23 25 27 28 29 29 27 26 26 25 22 18 15 16 16 15 15 14 11 9 10 11
11 11 9 9 7 9 11 8 9 12 10 8 7 6 6 6 6 7 6 6 7 8 9 12 13 10 7 4 2 3 8 13 10 8 8 8 9 9 9 8 8 7 8 4 3 4 6 7 10 13 7 3 10 17 18 20 21 17 17 21 20 18 20 23 24 25 28 29 30 31 29 27 27 27 25 21 17 17 16 14 13 13 11 10 11 11
8 11 13 13 10 10 12 8 7 8 7 8 8 7 7 6 6 6 6 6 7 7 9 10 8 7 6 3 10 9 10 13 13 11 11 12 11 10 11 11 9 6 4 3 2 3 5 5 5 8 9 8 7 11 16 21 22 17 18 19 18 17 21 25 25 24 26 29 30 32 30 27 26 26 25 21 17 15 14 12 11 10 11 12 12 12
8 8 11 12 8 10 12 12 10 8 7 9 9 8 8 6 6 6 5 5 5 4 7 7 5 5 5 1 7 10 12 12 11 10 10 10 8 8 10 11 11 9 3 3 2 5 7 3 2 5 10 11 9 9 14 23 24 19 18 19 18 18 21 26 27 24 23 26 29 30 28 26 25 24 23 20 16 14 12 12 11 10 12 13 13 12
10 8 8 12 9 10 13 12 12 11 8 7 8 9 8 7 7 5 4 5 3 3 5 5 3 2 2 4 6 10 13 11 8 8 8 8 6 6 8 10 9 9 9 5 4 3 4 5 7 4 6 11 13 12 15 23 23 19 18 18 19 19 20 24 27 26 22 23 28 29 28 26 25 24 22 19 17 14 13 13 12 12 13 13 13 12
8 7 9 12 12 11 12 11 12 11 6 4 6 8 8 9 9 5 5 6 4 4 5 4 3 1 4 4 9 12 10 9 9 8 8 7 6 6 6 7 7 8 9 8 4 3 7 10 12 10 10 12 12 12 17 24 23 20 19 20 21 21 20 22 24 25 24 25 27 29 29 29 27 26 24 21 19 18 16 14 13 15 16 14 13 13
6 5 8 12 12 12 12 11 13 12 9 6 5 6 7 9 9 5 5 6 6 7 5 5 8 5 3 1 6 9 7 8 8 7 7 6 5 5 3 2 1 3 6 8 8 6 0 8 13 15 16 17 15 16 20 24 20 20 21 24 26 27 25 23 23 25 26 26 28 29 31 30 30 28 26 24 23 21 18 16 16 18 16 15 14 13
5 4 7 13 11 9 10 11 11 12 13 11 7 6 6 6 6 5 4 5 6 6 4 7 10 3 4 2 4 6 6 7 5 5 6 6 6 5 5 5 4 4 6 8 9 9 10 6 1 2 6 14 18 17 18 18 14 17 23 25 26 28 28 25 23 25 26 26 28 30 31 31 32 30 27 26 25 23 20 18 19 18 15 14 14 14
3 3 5 10 9 6 7 8 7 8 11 12 10 8 6 5 4 3 3 4 6 6 5 7 7 1 6 4 4 6 6 5 4 5 7 7 7 7 7 8 9 9 9 10 10 10 11 12 14 15 12 3 7 9 8 9 8 13 21 22 21 23 25 23 22 24 25 26 27 28 29 32 32 30 29 29 27 25 22 19 19 17 16 15 15 14
2 4 4 6 6 5 5 7 8 8 8 9 8 8 8 5 4 5 4 4 6 5 4 6 4 3 4 5 6 6 6 7 6 6 6 6 7 9 10 9 9 10 10 10 11 11 10 12 16 18 19 16 10 5 5 6 5 10 16 16 15 16 18 20 21 21 22 23 27 28 28 31 31 30 31 30 28 27 24 19 18 18 17 16 15 14
3 2 4 4 4 5 6 7 8 7 6 6 7 8 8 7 6 7 6 6 7 6 5 5 1 4 3 3 5 7 8 10 10 7 6 7 9 10 10 10 10 10 11 11 11 11 11 12 15 16 19 20 19 17 15 14 8 2 4 6 5 5 9 17 20 19 19 20 25 28 29 29 30 31 32 31 29 27 23 20 19 19 17 16 15 14
5 2 3 5 5 6 8 7 4 8 11 10 7 4 4 5 4 5 6 5 5 5 5 3 2 4 2 3 5 4 8 10 11 10 8 8 10 10 11 11 11 12 12 12 11 10 11 13 15 16 19 20 21 22 23 22 17 10 8 9 4 3 5 16 20 18 20 21 22 26 28 27 29 31 32 31 28 26 23 21 20 19 17 16 15 15
3 2 4 6 4 5 9 8 6 8 9 7 5 7 7 7 7 4 5 5 3 3 2 1 2 3 1 2 7 7 8 9 9 9 9 8 8 9 11 11 12 12 13 12 12 11 12 15 17 18 19 20 21 23 23 22 19 12 8 5 5 10 10 14 17 15 17 19 20 24 25 25 28 31 30 29 27 25 23 22 20 19 17 16 16 16
2 2 5 6 3 3 6 6 5 6 6 3 3 6 8 9 10 5 4 5 3 4 3 2 1 2 1 0 7 11 10 8 8 8 8 8 7 7 9 10 11 11 12 13 13 12 13 14 16 17 19 19 20 21 21 21 18 10 5 2 8 15 15 14 15 14 15 16 19 22 24 25 27 29 28 28 27 25 24 23 21 19 17 16 16 15
1 1 2 3 3 3 4 4 2 2 4 4 3 5 7 10 10 5 2 3 3 6 5 1 3 3 3 3 9 11 9 8 8 8 8 8 8 8 8 9 9 10 11 13 13 13 13 13 15 18 19 19 19 19 18 20 21 16 7 5 7 12 15 16 17 18 18 18 19 20 24 27 28 27 27 27 27 25 24 23 21 19 17 15 15 14
1 1 1 1 5 4 0 1 2 2 3 6 6 4 6 7 8 6 1 2 3 4 5 2 6 7 5 5 10 9 9 8 7 8 8 8 8 8 8 9 9 10 10 11 12 13 14 14 15 19 20 20 19 18 17 18 21 23 16 7 7 11 11 15 21 24 22 20 21 22 25 28 27 26 25 25 26 25 23 23 21 18 16 15 15 14
2 3 2 3 6 6 1 2 3 6 6 7 8 5 6 8 9 8 5 5 4 1 2 2 4 6 5 8 9 9 9 7 7 8 8 8 9 8 9 10 11 11 11 12 12 13 14 14 15 18 21 21 20 19 18 19 21 24 24 18 7 8 12 15 21 25 23 21 24 27 28 29 29 28 25 24 26 26 23 23 21 17 16 15 15 14
3 3 1 2 5 5 3 2 1 6 9 6 3 3 7 9 10 8 7 6 4 1 1 2 4 6 6 8 9 9 8 7 7 8 8 9 10 10 11 11 12 13 13 13 14 14 15 14 14 17 20 21 21 21 19 20 23 26 26 23 15 5 11 16 16 18 24 25 26 28 28 29 31 30 26 25 26 26 24 23 21 18 16 15 15 14
4 1 0 4 5 3 3 0 1 7 8 2 8 11 10 9 10 9 8 8 6 5 5 6 9 9 6 6 7 7 7 7 8 8 9 11 11 11 12 12 12 13 13 14 14 14 14 15 15 18 20 21 21 22 20 19 22 26 28 24 20 15 4 14 16 15 22 25 25 25 24 24 26 27 26 25 25 24 24 23 20 18 17 16 16 15
4 1 2 4 5 3 2 2 2 5 1 9 11 13 11 10 10 9 9 10 7 5 2 6 10 8 5 7 8 7 8 9 9 10 11 11 11 11 11 12 12 12 13 13 13 13 13 14 16 19 20 22 22 22 21 20 20 24 29 29 26 23 10 10 18 17 18 20 21 21 21 20 22 24 24 23 22 23 24 22 20 19 18 17 16 15
2 2 1 1 4 4 3 3 5 4 10 13 11 12 11 9 9 9 9 9 8 7 5 1 6 5 4 7 8 9 10 11 11 11 10 9 10 11 11 12 12 12 13 13 13 13 13 13 16 19 20 21 22 23 23 22 22 23 28 31 31 28 18 0 13 15 14 17 20 21 21 20 19 21 21 19 20 22 22 21 19 18 17 17 15 15
1 2 2 1 2 4 3 3 6 7 6 6 7 9 9 7 8 9 10 11 10 8 4 2 4 5 6 7 8 9 10 11 11 11 9 8 10 11 12 12 12 12 12 12 13 13 13 14 16 19 21 22 22 23 23 23 24 25 27 30 32 32 28 16 10 18 20 19 19 20 21 20 19 21 19 17 21 24 22 20 19 16 15 15 16 16
2 2 2 1 2 3 4 7 4 6 3 2 4 6 7 8 9 10 10 11 12 9 6 6 7 7 8 8 8 9 10 10 11 10 10 10 9 9 11 12 11 12 12 12 13 13 14 16 17 19 22 24 23 23 23 25 27 28 29 31 31 32 32 28 21 26 30 26 22 20 19 20 22 24 23 22 25 26 25 24 22 19 19 19 19 19
3 3 2 1 2 2 3 4 3 3 2 4 6 8 7 6 10 12 12 12 12 10 8 9 9 9 9 9 8 9 10 11 11 12 13 13 10 9 10 11 11 11 12 12 12 13 15 17 19 20 22 24 24 24 25 28 30 30 32 34 34 34 34 34 32 31 30 28 25 21 19 21 25 26 26 26 28 29 27 26 24 21 22 22 21 21
3 3 3 1 2 2 1 2 1 1 4 5 7 9 8 4 6 8 9 12 12 11 8 7 8 8 8 8 8 7 8 9 10 12 13 13 11 10 9 10 10 10 11 12 13 15 18 18 19 20 21 22 24 26 28 29 30 31 33 36 37 36 36 37 37 35 30 28 27 24 22 23 25 27 27 27 28 28 26 25 24 23 23 23 22 21
4 3 3 1 1 1 1 4 3 3 3 5 7 7 7 5 3 2 4 7 10 10 8 6 6 6 6 7 6 5 5 6 8 10 11 11 11 10 9 9 10 11 13 15 17 18 19 20 21 22 22 22 23 26 28 29 29 31 33 35 35 35 35 36 35 32 30 30 29 27 25 24 24 25 25 25 26 25 23 22 22 21 21 22 20 19
6 3 2 1 1 1 0 2 2 2 1 5 6 6 6 4 2 1 2 4 8 10 8 5 4 4 4 4 3 1 2 3 7 7 8 10 9 9 10 12 14 15 16 17 18 19 20 21 21 22 23 24 24 23 25 27 29 30 31 31 31 30 32 32 31 30 30 30 30 29 28 27 26 25 24 23 23 22 21 20 18 16 16 16 16 16
9 5 2 2 3 1 1 1 1 1 2 4 6 6 6 4 2 2 2 2 6 9 9 6 3 4 4 5 5 4 1 3 5 5 6 6 7 8 9 12 15 17 17 18 19 19 20 20 22 22 23 24 24 23 23 25 27 29 28 28 28 29 29 28 27 27 27 28 29 29 28 28 27 26 25 24 23 22 21 20 18 16 14 14 14 15
8 6 4 5 4 1 1 1 2 3 3 6 9 8 5 3 1 2 1 2 6 8 8 7 5 5 5 5 6 6 5 5 4 4 5 6 9 12 13 14 17 18 18 19 19 19 20 21 22 23 23 23 22 22 21 21 23 25 24 24 26 27 26 24 23 24 26 27 28 28 28 27 26 25 24 22 21 22 21 20 18 17 16 15 15 16
3 3 4 5 2 0 1 4 4 2 2 7 11 9 5 2 1 1 1 2 5 6 7 7 7 7 8 7 6 5 5 6 5 5 7 10 12 14 16 17 19 20 20 21 21 19 19 21 22 22 23 23 22 22 21 21 21 22 22 23 25 25 24 23 22 22 24 26 27 27 27 26 25 24 23 20 19 19 20 19 18 16 16 15 15 14
3 4 4 3 1 2 2 4 4 3 3 9 12 9 6 3 1 2 4 4 5 7 7 8 8 9 10 10 8 6 6 7 8 7 9 11 11 12 16 18 18 19 21 23 24 22 19 19 20 21 23 25 25 24 22 22 21 21 21 23 23 21 21 24 25 24 24 24 25 26 25 24 24 23 20 18 17 17 17 17 16 13 13 13 13 12
4 2 1 2 2 3 4 4 3 3 4 11 10 5 6 4 3 5 5 6 7 8 8 9 9 8 9 10 10 9 8 8 9 9 8 8 8 9 12 14 14 15 17 19 22 22 20 19 19 19 19 22 24 25 25 24 23 21 21 22 21 19 19 20 22 23 23 23 23 23 23 22 21 20 18 16 16 16 16 15 14 12 10 9 10 10
6 4 1 2 3 2 4 4 2 1 3 8 7 5 6 7 6 7 6 7 7 7 7 8 8 8 9 9 10 9 9 8 7 7 6 6 6 6 7 9 9 10 12 13 14 16 18 19 19 19 18 18 19 21 22 24 23 23 22 21 19 18 19 18 18 19 20 20 20 19 19 19 19 18 17 16 15 16 15 14 14 12 9 7 7 8
7 6 6 6 6 5 5 3 1 1 3 7 8 8 9 10 10 9 9 8 7 7 7 7 9 9 8 8 8 8 7 7 6 5 5 5 5 5 5 5 4 4 6 8 8 10 14 16 16 17 18 18 17 17 17 18 20 20 21 21 20 19 18 17 17 17 17 17 17 16 15 16 16 17 17 17 16 16 15 14 13 12 11 8 6 6
4 5 6 7 8 9 8 5 4 7 9 10 10 9 10 11 10 11 11 9 8 9 8 8 9 9 8 8 8 7 6 5 5 5 4 4 4 4 3 2 3 5 6 6 4 5 10 13 13 14 15 16 17 17 16 16 17 16 16 17 18 19 18 18 17 17 17 16 16 16 15 15 15 16 16 17 17 18 19 18 15 14 14 13 11 9
1 3 4 6 7 6 6 6 8 10 12 12 12 12 12 12 11 10 10 10 10 11 10 10 10 9 9 9 9 8 8 7 7 6 5 4 4 5 5 5 6 9 10 10 9 9 10 12 12 12 12 13 14 15 15 15 15 15 14 14 14 15 16 18 18 18 18 17 16 15 15 15 14 14 14 15 15 16 19 20 17 15 15 15 15 14
2 3 6 8 7 5 7 10 11 12 13 12 11 10 10 11 11 11 10 11 11 11 11 11 10 9 9 9 9 9 8 7 7 7 5 5 6 7 7 6 6 6 8 10 11 12 13 13 13 13 13 12 12 13 13 13 13 13 13 13 13 12 12 13 15 16 16 16 15 15 15 14 13 12 14 16 16 15 16 16 15 14 13 13 13 14
6 5 7 9 9 8 9 12 12 12 13 12 12 11 10 10 11 12 12 12 12 11 11 11 10 9 9 9 9 8 7 7 7 6 5 4 5 6 6 7 6 7 7 8 8 9 9 9 10 11 11 11 11 11 12 11 11 12 11 11 11 10 10 10 11 13 13 13 14 13 13 13 13 11 11 13 15 16 16 14 14 14 14 13 12 10
7 8 8 8 7 6 7 8 9 9 9 9 11 12 12 12 12 12 12 11 11 10 10 9 9 10 10 10 11 9 7 7 7 7 6 5 4 4 3 2 4 5 5 5 6 7 7 8 8 8 9 9 10 10 11 10 10 10 10 9 10 11 12 11 10 10 10 11 11 11 11 11 12 11 9 8 10 14 17 17 17 16 15 14 13 11
6 7 7 7 7 8 8 9 9 8 8 9 10 11 11 10 10 11 11 11 10 10 11 10 9 8 9 10 11 9 8 9 9 8 7 6 3 4 3 3 5 4 3 5 7 7 8 8 8 8 9 9 10 10 10 10 9 9 10 10 11 11 11 12 12 13 12 10 9 9 10 10 10 10 9 6 7 11 14 16 16 15 14 14 14 13
Wind_Direction
203 210 216 218 225 222 218 225 236 248 249 264 299 291 269 261 235 241 197 165 184 197 196 239 259 255 262 268 268 262 237 220 211 213 246 235 191 169 168 180 202 195 163 242 238 207 178 176 175 168 165 163 164 167 166 162 159 160 160 162 163 166 171 170 167 169 168 166 168 170 170 172 173 167 166 165 167 177 189 189 182 177 179 183 184 182
204 222 226 222 226 229 227 224 226 249 258 270 301 289 276 272 251 251 211 165 166 194 211 244 266 263 259 259 263 267 264 260 238 203 222 249 228 194 190 195 196 177 142 186 244 217 176 159 165 164 159 164 167 167 165 163 162 161 163 163 164 170 174 175 173 171 172 172 173 176 171 166 165 164 166 164 162 172 183 181 176 175 180 188 193 187
205 228 233 229 231 234 235 234 224 243 258 266 271 260 264 269 271 270 246 187 163 184 223 254 267 263 255 247 247 249 247 260 267 233 202 238 247 220 220 222 202 169 146 163 205 207 169 150 159 163 163 169 170 170 168 167 165 161 163 163 165 171 173 176 176 174 177 174 172 175 168 164 164 157 159 162 160 169 183 179 169 170 179 188 195 191
206 226 227 222 230 238 233 231 248 266 266 257 249 249 250 258 264 266 253 234 218 204 187 281 282 273 266 263 254 249 246 248 261 254 216 216 243 233 230 244 221 176 153 165 183 183 161 151 160 165 167 171 173 177 175 173 168 158 158 161 164 172 174 177 178 176 177 170 169 172 165 168 171 153 149 162 166 165 173 173 164 170 184 186 191 193
234 239 222 212 220 229 224 206 225 255 263 243 243 249 250 251 252 252 258 259 251 224 151 242 279 272 261 264 259 251 249 245 248 258 242 211 224 238 230 239 237 199 163 167 173 168 163 164 167 165 160 167 184 195 193 188 176 153 153 161 161 168 175 178 179 173 170 161 160 166 161 157 159 150 147 161 170 168 167 172 169 175 188 185 190 201
244 257 225 213 218 202 210 219 218 226 248 246 233 234 249 259 260 260 265 270 263 239 192 202 248 260 243 241 244 243 239 237 231 240 249 230 215 229 234 232 239 235 183 164 165 165 167 167 166 161 157 166 183 196 217 211 173 147 157 166 163 166 170 173 176 172 171 165 160 175 175 155 152 160 157 164 174 174 171 175 175 178 187 188 199 205
237 254 239 217 217 187 211 232 222 218 233 251 237 223 230 247 257 264 270 274 264 256 250 244 255 271 260 247 251 255 243 235 223 217 230 241 230 222 231 231 226 235 206 162 158 163 166 168 165 162 169 177 177 185 213 210 162 164 174 169 164 169 172 174 176 174 177 177 173 183 187 167 167 177 168 169 175 174 171 172 175 181 188 194 204 202
220 241 233 211 229 225 223 237 225 217 225 242 246 237 227 231 245 254 260 269 271 274 274 267 267 269 268 269 274 281 274 255 243 230 215 221 242 236 252 268 259 305 233 157 158 161 162 164 165 168 175 178 171 173 183 165 168 184 178 163 163 171 176 175 176 175 177 179 174 174 181 176 179 188 178 174 175 172 173 173 175 183 191 200 205 200
214 221 204 191 229 239 228 237 227 217 227 240 248 256 252 240 258 267 260 255 253 257 260 257 256 255 255 256 257 270 278 264 244 248 230 208 278 18 31 11 24 29 52 126 141 148 155 161 168 169 164 162 161 159 156 159 182 190 169 160 167 174 177 176 178 178 176 177 173 173 180 173 169 183 186 182 184 180 179 180 180 185 188 196 205 200
207 217 226 211 216 238 237 240 235 222 221 240 256 270 274 230 256 270 267 262 255 248 252 250 249 258 262 253 249 252 274 276 229 198 45 40 28 31 26 16 17 20 62 123 127 134 159 178 183 162 140 144 153 154 156 169 190 188 166 165 171 177 182 180 180 177 171 170 172 178 181 169 159 171 179 183 191 188 185 187 189 188 186 189 198 196
217 200 241 245 224 229 238 237 239 235 226 242 261 272 255 222 245 258 257 262 264 250 251 250 248 255 262 263 263 220 145 22 59 76 47 29 25 20 14 15 6 6 51 99 101 103 148 174 181 104 105 128 147 158 163 176 197 197 182 180 177 180 186 185 183 177 170 169 171 177 180 169 162 166 172 179 186 188 188 188 190 189 183 181 188 187
243 219 215 256 268 257 248 240 231 221 215 233 247 251 248 229 222 235 234 232 241 249 255 254 250 246 249 268 259 178 116 75 61 57 51 30 14 2 358 5 358 18 59 72 56 47 58 70 57 50 56 100 147 167 171 185 205 208 197 194 187 181 183 185 185 179 170 167 171 177 178 175 172 172 176 181 183 186 187 186 186 181 174 176 182 183
236 238 216 215 235 244 247 244 229 216 205 222 233 221 238 244 224 226 227 222 232 244 250 254 257 249 248 301 7 124 90 73 68 54 37 25 17 359 357 3 360 37 72 49 2 55 51 44 62 73 79 171 179 175 177 194 209 205 196 199 194 182 178 179 183 182 171 164 171 177 177 180 180 177 178 182 182 181 182 186 183 172 169 178 180 180
216 236 223 206 197 213 236 244 229 216 198 216 233 221 222 235 233 227 226 238 246 252 263 273 276 256 244 20 50 65 59 56 60 52 26 18 17 359 357 3 354 3 87 104 344 13 57 65 91 124 162 197 201 179 184 203 209 197 190 199 198 185 179 177 179 183 175 165 170 175 176 180 180 176 176 178 179 177 178 186 185 175 180 186 181 178
222 236 224 220 197 181 213 240 244 233 211 211 225 233 230 232 245 244 233 244 254 269 289 296 291 260 237 51 51 62 61 50 47 49 41 31 18 355 358 6 357 337 332 103 71 352 17 45 168 166 170 182 194 192 205 216 210 191 183 193 196 187 183 182 181 183 178 168 169 173 175 177 175 173 170 168 173 176 177 184 187 187 191 190 182 178
234 241 229 236 230 194 202 225 248 254 239 210 211 227 233 235 247 259 254 259 272 280 275 269 282 327 101 107 58 60 69 71 69 58 52 48 32 14 9 11 9 341 332 19 74 67 5 303 279 264 192 188 192 194 217 226 212 188 180 185 192 190 187 185 184 184 179 169 169 171 173 175 171 168 163 161 172 180 181 187 192 195 197 193 183 178
233 242 237 230 222 221 218 208 226 247 251 230 218 225 236 240 244 251 253 256 253 245 246 230 240 236 130 97 52 58 70 82 95 90 74 67 55 41 24 15 8 337 329 353 23 136 181 213 228 233 215 201 200 198 216 226 210 188 181 183 188 192 191 187 183 182 178 170 171 173 173 172 168 166 163 165 177 184 184 186 193 201 201 193 180 174
237 244 250 239 215 215 229 221 219 227 237 248 239 237 244 244 246 248 246 246 237 238 236 218 229 226 170 120 44 59 64 58 68 82 83 77 65 57 51 59 65 296 323 355 6 7 49 188 195 204 196 187 198 211 218 222 205 183 184 186 187 190 190 187 180 177 177 173 173 175 175 172 168 167 168 172 177 179 180 184 198 206 199 186 178 173
256 252 249 250 230 202 219 234 228 220 226 236 244 245 243 237 239 239 244 248 242 243 246 233 238 279 34 53 83 77 70 56 45 54 63 52 40 39 34 28 26 16 7 9 14 13 7 11 25 242 192 175 183 200 216 218 195 185 194 194 192 191 187 183 179 178 180 177 174 176 176 174 170 168 172 176 174 173 176 186 199 201 187 176 177 174
218 236 245 247 235 197 208 230 237 225 218 227 239 240 236 243 248 241 237 249 250 247 251 245 231 93 31 18 67 82 88 89 75 51 38 26 18 19 25 18 9 12 15 9 11 17 13 11 11 0 345 311 182 185 212 217 187 195 209 208 205 195 182 178 179 179 181 180 176 176 176 175 172 170 174 175 172 173 175 183 190 187 177 174 174 173
189 207 244 249 229 212 214 216 232 242 224 219 232 236 237 241 244 242 230 233 254 254 253 256 234 98 36 6 30 42 55 65 64 59 41 23 16 14 18 19 13 12 13 10 7 7 9 13 15 10 1 355 352 344 308 282 234 210 221 225 220 203 181 178 183 183 183 181 178 176 176 176 173 172 175 173 172 174 172 176 181 178 174 172 170 173
0 221 250 266 241 231 226 211 228 267 279 250 234 240 248 245 241 246 239 221 232 246 257 257 216 89 44 22 26 11 28 44 40 44 49 30 21 15 12 16 21 23 18 14 10 4 7 13 15 13 13 11 5 2 355 340 333 270 268 297 272 228 171 172 182 186 188 189 186 180 174 173 171 171 174 171 170 171 169 173 178 174 171 169 170 175
344 293 270 260 246 256 254 244 273 316 312 288 268 292 320 317 302 274 271 269 252 256 273 276 110 104 81 88 90 35 31 42 33 33 41 30 21 14 10 14 22 26 23 17 14 11 10 13 15 16 16 15 11 9 8 7 17 34 15 358 330 287 163 174 188 190 186 193 196 182 171 170 171 171 172 169 167 168 167 170 172 169 169 169 172 177
323 282 266 246 242 294 283 277 297 307 302 301 331 12 20 5 356 333 311 331 317 287 309 348 82 97 51 85 107 87 53 45 36 37 40 32 27 14 10 16 19 19 17 14 15 16 13 13 15 16 16 14 12 11 8 9 24 37 17 13 178 192 182 189 203 196 184 194 197 181 170 169 170 170 170 166 166 167 165 164 164 166 170 172 174 178
292 274 272 253 249 318 286 266 272 282 289 308 357 9 19 17 10 346 328 15 1 318 1 85 98 75 319 352 100 94 78 58 37 40 42 35 33 23 17 23 21 18 14 11 12 13 15 18 17 16 15 14 13 14 8 3 10 13 327 294 178 180 178 188 202 196 189 194 190 181 174 168 168 170 168 164 164 164 161 159 161 165 170 171 173 176
227 282 294 259 249 264 254 255 276 294 305 310 326 5 22 29 30 17 320 51 33 322 329 66 111 121 203 150 95 90 85 70 40 36 42 35 30 28 27 27 23 21 16 12 12 11 13 17 17 16 17 15 15 15 10 1 1 360 330 264 220 196 180 179 190 191 190 190 186 185 179 170 167 166 164 162 162 160 158 159 162 164 167 170 171 170
210 184 146 221 268 280 140 47 303 258 281 301 300 339 18 29 43 53 35 59 52 327 322 55 116 138 157 99 79 73 71 67 43 33 35 27 25 27 29 31 27 23 20 18 17 15 15 15 15 15 15 16 17 14 10 4 1 3 2 340 256 229 194 175 182 185 184 186 187 186 179 171 167 163 159 160 159 157 158 161 162 162 165 169 167 164
235 245 191 204 269 287 152 154 277 273 264 264 263 290 13 25 33 48 51 41 41 344 333 46 114 125 94 57 56 58 60 59 44 35 32 22 18 22 30 33 30 26 23 23 21 19 19 17 15 15 14 15 16 12 8 7 8 9 8 6 339 242 202 181 181 178 176 182 182 179 175 170 167 162 159 160 159 157 157 159 162 164 166 165 162 163
270 249 196 232 271 300 287 197 232 279 270 263 274 358 29 38 42 51 54 42 45 111 115 111 118 104 76 53 46 45 49 56 51 42 36 31 23 24 31 31 29 27 24 23 23 21 21 20 19 19 18 18 17 13 10 6 10 13 11 9 4 311 211 200 200 183 174 176 175 172 172 169 167 164 160 158 159 159 157 159 165 166 163 163 163 165
304 240 80 282 263 269 287 269 166 252 264 332 48 43 38 49 61 64 48 40 62 95 107 119 106 85 69 63 54 47 49 56 55 47 41 38 32 29 33 31 29 29 25 25 24 22 22 21 22 21 21 22 20 16 14 8 7 12 13 12 5 351 277 205 206 187 173 173 170 168 168 167 167 166 160 154 155 159 159 161 168 168 162 164 168 169
305 316 38 317 289 254 183 111 259 257 78 64 51 44 40 43 54 55 38 30 43 50 57 138 117 90 74 77 65 54 53 51 51 49 44 41 36 32 32 32 33 31 29 30 28 27 27 24 24 24 22 23 23 20 18 14 11 14 18 18 11 0 349 206 202 193 177 169 162 160 161 164 168 167 160 153 152 157 158 161 168 169 165 166 167 165
309 314 354 295 293 272 189 162 247 225 97 76 44 35 39 41 49 54 42 28 23 10 342 137 115 97 96 91 72 56 52 48 46 43 41 42 39 35 33 33 34 33 31 32 32 31 30 27 26 27 25 24 24 24 23 21 20 20 22 24 21 14 10 207 189 179 164 153 148 148 151 155 158 158 159 159 157 160 162 163 168 171 167 166 163 157
241 293 302 287 281 280 319 352 272 227 139 86 35 30 36 40 54 63 51 30 20 13 0 40 85 91 97 89 76 63 54 50 46 36 32 39 39 36 37 35 35 36 33 33 36 33 30 30 30 31 30 28 27 26 25 28 31 29 28 32 33 27 21 24 87 107 105 111 122 132 140 144 142 143 148 150 149 154 154 149 151 153 148 145 145 145
236 274 299 320 270 282 3 15 312 244 197 92 40 35 40 51 64 68 54 31 19 21 43 65 72 80 83 78 77 74 64 55 50 38 32 37 40 39 39 37 38 40 38 38 39 36 32 30 31 32 32 31 29 28 27 31 37 37 37 40 42 38 29 20 37 72 81 84 90 101 116 123 123 125 129 129 130 134 133 131 132 132 128 126 127 128
248 276 275 239 266 294 22 21 307 260 130 100 62 36 32 68 90 85 64 38 23 20 39 62 71 74 80 86 88 84 76 66 55 42 34 33 36 38 39 39 38 39 40 39 38 37 35 32 30 30 31 31 29 29 27 30 35 38 40 42 43 42 38 28 25 42 63 73 79 84 93 100 105 110 115 119 121 122 123 125 126 124 123 122 119 117
271 263 259 254 288 286 24 31 340 141 108 84 57 35 21 38 89 88 64 38 23 14 21 53 75 81 89 98 99 97 98 84 61 43 32 29 33 37 38 38 35 34 37 36 35 37 37 36 34 32 32 34 33 32 30 30 34 38 39 42 41 40 42 38 29 29 42 58 69 75 80 87 97 105 111 116 119 119 118 118 118 117 120 120 116 113
311 288 279 297 308 281 82 77 96 154 109 51 37 25 19 15 0 33 71 51 28 17 17 35 59 71 91 110 116 135 136 93 58 40 28 25 29 34 39 40 36 37 39 37 39 40 38 38 38 36 36 38 38 37 34 33 36 40 40 41 41 40 43 43 35 28 32 45 58 67 72 76 83 93 102 109 112 112 111 112 111 111 114 116 112 109
309 301 307 278 221 280 103 112 127 173 108 41 21 4 5 7 335 306 132 74 25 16 19 27 51 68 84 96 90 199 201 63 46 33 21 19 19 21 30 38 39 41 41 39 40 39 35 35 37 38 39 39 38 38 37 36 38 42 42 41 41 41 42 43 39 33 33 40 50 60 67 70 72 75 83 90 96 101 106 108 106 108 116 120 117 112
287 241 221 235 212 213 287 223 68 107 92 17 0 354 353 351 332 284 185 86 19 9 15 27 67 84 71 62 38 4 20 81 59 32 16 19 24 24 28 33 36 40 42 43 45 41 36 35 36 36 38 39 38 37 37 39 40 42 44 43 41 41 41 41 42 41 40 44 49 55 62 68 69 67 68 73 81 88 94 99 103 111 121 128 130 126
292 243 223 241 239 231 185 136 64 86 82 2 338 336 355 10 324 258 208 52 13 6 17 31 53 61 51 56 51 40 55 82 71 34 17 28 39 40 38 37 37 37 36 38 43 45 41 38 36 34 34 34 36 37 38 41 43 44 45 45 45 44 42 41 44 46 48 51 52 53 57 63 68 68 66 68 75 82 87 91 96 105 112 117 123 126
352 325 273 250 236 22 145 120 94 95 57 350 323 319 349 10 232 270 34 36 17 21 34 42 53 61 58 64 67 62 67 75 74 54 39 41 41 37 35 36 37 37 34 30 33 40 44 42 38 36 34 32 32 35 37 40 44 44 42 42 43 43 43 44 47 48 49 52 52 53 55 57 61 64 65 68 73 77 80 81 85 95 105 107 108 111
23 358 315 287 76 62 90 107 109 113 40 343 320 321 350 343 205 77 59 61 51 51 60 64 68 76 76 76 76 83 89 80 72 64 53 48 44 34 31 33 34 34 34 32 31 34 38 41 41 39 36 33 34 36 37 38 40 42 41 41 41 39 37 40 42 43 45 46 48 52 55 56 56 57 59 63 67 70 73 75 77 83 91 92 93 97
4 348 24 36 38 61 78 75 81 98 17 341 327 340 11 15 108 109 89 80 75 75 79 77 75 77 79 82 83 82 84 80 73 71 65 58 55 46 37 34 31 31 33 35 36 35 34 36 39 40 38 36 36 36 38 38 37 37 40 41 41 39 38 39 41 43 43 44 46 50 53 56 57 57 57 58 61 65 68 71 74 73 74 80 86 93
355 331 63 54 355 15 76 65 38 37 6 3 19 60 54 55 91 107 102 96 89 87 87 82 79 78 79 88 92 86 84 86 80 77 76 68 64 60 49 41 35 33 35 37 40 43 42 40 37 36 35 36 36 36 37 39 38 36 35 34 34 39 42 42 45 48 47 47 48 49 52 54 55 57 59 57 57 58 58 60 65 66 66 76 91 98
44 50 70 66 45 54 79 89 96 115 72 57 66 78 76 77 85 93 100 104 100 95 96 92 89 87 87 95 101 99 98 102 102 98 91 77 67 61 54 45 31 27 42 43 42 54 59 55 47 41 36 32 33 35 37 40 41 39 36 32 32 36 39 40 44 49 51 51 51 51 52 53 54 55 56 55 52 49 48 51 55 54 52 55 69 88
54 55 70 87 95 92 89 107 118 98 86 81 80 82 86 87 91 95 98 101 103 103 101 97 93 92 93 95 96 97 96 100 105 102 97 97 95 82 73 62 7 3 25 37 28 45 62 62 58 54 47 38 33 32 34 39 42 42 41 38 35 34 33 36 41 45 45 47 50 51 49 51 58 57 53 54 54 48 45 46 45 45 45 44 46 50
16 30 72 108 127 115 91 102 108 97 92 91 87 86 88 89 92 97 98 100 105 103 97 93 92 89 85 84 83 79 73 66 63 58 48 50 57 52 55 64 46 28 26 27 19 19 34 44 46 48 49 48 41 34 33 37 40 40 41 40 38 37 35 36 39 40 39 39 42 43 42 47 61 65 56 52 54 51 49 47 40 36 36 36 39 42
136 102 81 85 91 92 99 107 104 95 93 93 89 89 92 93 96 99 99 101 104 103 99 98 97 93 91 90 88 84 78 70 64 57 45 38 36 28 25 36 50 49 43 39 35 31 30 29 28 29 32 34 36 36 34 33 34 37 38 37 35 34 36 43 46 42 38 36 34 36 38 42 55 69 67 59 55 54 54 50 42 38 37 36 40 43
121 112 99 94 96 103 113 113 106 97 91 89 92 97 99 103 105 104 104 106 105 104 104 104 105 110 111 108 106 104 100 96 94 92 84 64 49 34 18 17 32 40 39 41 45 46 43 37 30 28 25 21 23 29 29 28 30 32 33 33 30 24 27 44 57 55 48 39 32 33 38 38 41 59 77 74 66 63 66 66 59 54 53 51 48 47
113 115 117 115 112 113 114 110 104 100 94 93 101 107 108 113 115 113 115 117 115 116 119 120 125 134 135 136 140 140 130 134 149 148 135 134 163 177 177 90 62 49 35 38 40 34 37 37 30 29 29 25 24 24 21 20 23 23 22 25 27 24 22 27 39 51 54 47 38 38 44 41 35 40 59 83 90 85 84 86 82 74 71 69 64 59
83 99 105 106 102 102 105 101 97 100 101 100 104 106 107 112 113 112 115 119 123 132 138 138 138 142 148 153 155 147 140 156 174 162 121 103 133 165 149 90 82 74 50 48 41 24 20 20 14 14 18 20 23 22 15 13 15 16 17 19 22 24 24 24 26 26 26 31 37 41 49 50 40 35 41 65 110 116 109 103 96 89 85 83 80 77
Height
746 755 758 756 752 745 742 740 738 735 730 729 729 731 728 728 729 720 718 719 716 729 737 733 735 734 730 725 718 714 714 717 720 722 723 721 724 730 735 739 740 741 743 747 752 750 748 749 749 750 752 755 758 760 762 765 769 771 774 777 779 781 784 786 789 791 793 794 795 795 798 800 803 806 809 811 813 816 820 820 820 819 820 821 821 819
745 757 754 746 742 736 734 734 734 735 732 732 738 739 734 729 726 717 717 719 717 731 737 732 737 736 730 727 720 717 718 719 716 719 724 722 719 721 727 732 735 738 742 753 761 754 747 748 749 750 752 754 756 758 761 765 768 771 773 776 778 781 783 786 788 790 792 794 794 795 798 800 802 805 806 807 810 814 818 819 818 818 818 820 822 821
752 755 745 736 732 731 730 728 731 736 734 737 742 745 743 734 729 723 717 716 719 732 738 735 739 737 728 724 720 718 719 719 714 713 718 721 719 719 722 723 725 733 742 751 758 752 745 744 746 749 751 754 757 758 761 765 768 771 773 776 779 781 784 786 788 790 792 794 795 796 798 800 801 803 804 806 809 812 815 817 817 817 816 818 822 822
756 747 733 729 729 730 731 730 734 739 739 742 745 749 748 736 736 738 726 716 715 723 733 738 741 738 729 723 719 717 717 716 714 711 711 715 718 717 718 719 718 725 736 741 743 743 741 742 744 746 750 754 757 759 761 765 769 771 773 776 779 782 785 787 789 791 793 794 795 796 798 799 801 803 804 806 808 810 812 814 814 815 815 817 819 820
744 730 721 724 726 727 732 735 740 747 747 745 744 747 746 736 736 737 728 719 716 720 727 739 750 745 734 732 727 718 716 716 714 712 709 710 713 713 713 715 715 717 726 730 732 735 736 739 741 744 749 753 755 757 760 766 769 771 773 775 778 781 784 787 789 792 794 795 796 797 798 800 801 804 805 805 807 809 810 811 812 813 814 816 818 819
734 722 718 724 725 727 736 741 741 747 752 748 741 740 740 736 734 732 728 727 732 735 727 736 762 757 734 731 729 719 717 716 713 713 712 709 709 712 713 714 714 713 717 721 725 729 732 734 739 743 747 749 750 753 760 769 772 771 772 772 774 777 780 783 786 789 793 795 797 799 800 800 801 804 804 804 805 807 809 810 811 813 814 815 817 819
729 720 718 725 729 733 740 743 739 741 751 752 738 730 733 735 735 734 733 736 743 742 727 726 752 758 737 726 722 716 714 711 708 710 711 709 708 710 711 711 711 711 712 717 721 724 728 731 735 740 743 744 747 751 761 772 774 771 769 768 770 772 774 778 781 784 787 790 793 798 800 801 803 804 804 804 805 807 808 810 812 813 814 815 817 818
723 722 722 726 731 735 741 743 736 734 747 749 730 723 727 729 733 735 735 741 741 739 734 727 736 753 749 732 720 715 714 709 708 710 708 708 709 709 711 710 710 712 711 714 720 722 724 727 730 735 738 741 748 754 763 773 774 771 768 767 767 768 770 772 775 778 779 780 784 791 796 799 803 805 805 805 805 806 808 810 811 812 814 815 816 817
716 723 727 728 735 738 738 737 729 729 741 738 724 722 722 724 732 733 735 741 737 742 751 738 732 752 752 732 719 718 718 715 712 712 711 710 712 714 716 715 714 715 715 716 721 724 725 726 729 732 736 742 750 755 760 766 769 769 768 767 766 766 767 768 769 771 774 778 781 784 788 792 799 804 805 805 805 806 807 809 810 812 814 815 816 817
714 718 719 724 735 737 733 728 722 726 733 728 723 724 723 728 734 735 739 739 738 751 759 743 735 751 751 730 721 722 723 721 714 714 718 717 718 721 720 719 717 717 718 720 724 727 729 729 731 735 739 745 751 753 755 758 760 765 767 766 765 764 765 765 766 767 770 777 781 783 785 787 792 799 803 805 805 805 806 808 810 812 813 814 815 816
713 712 715 719 724 727 726 723 720 721 724 724 726 728 731 735 736 740 740 739 752 762 753 739 732 744 753 736 723 726 727 724 720 722 727 723 723 724 723 722 720 719 722 724 727 729 731 733 736 741 745 749 752 754 755 756 759 763 765 763 762 761 761 763 765 767 767 771 777 781 785 786 788 793 799 803 804 804 805 807 809 811 812 813 814 815
718 718 721 719 717 720 724 724 720 718 722 727 731 736 744 746 744 748 746 747 768 770 748 734 726 736 754 741 722 721 721 723 727 731 734 731 729 728 725 725 723 723 727 729 732 733 734 738 743 748 753 757 758 757 757 757 759 763 763 761 760 759 759 760 764 766 764 766 772 778 783 786 787 789 795 800 802 803 804 806 809 810 811 812 813 814
726 721 720 720 719 722 728 730 725 718 720 730 734 741 757 761 759 763 761 759 766 760 740 729 727 736 745 735 723 722 722 727 731 733 734 735 734 734 731 730 729 729 732 734 735 737 739 742 746 750 756 760 760 759 758 758 761 764 763 759 758 758 757 758 762 764 763 763 768 773 778 783 785 787 791 796 800 802 804 807 808 809 810 811 813 814
734 725 717 720 723 721 727 733 734 726 725 735 737 743 759 767 771 773 768 763 761 753 735 725 735 743 740 736 732 728 729 731 733 736 738 737 737 739 737 736 736 735 735 738 738 739 742 746 748 751 754 756 757 761 762 763 765 765 762 758 757 756 755 756 759 762 764 764 766 771 775 780 784 786 789 793 798 802 804 806 807 808 809 811 813 813
744 741 723 717 718 719 724 727 727 723 724 730 729 734 746 752 761 766 763 765 766 760 746 738 746 747 746 747 737 730 734 735 737 740 741 741 740 740 742 742 743 741 738 740 741 740 741 744 747 751 751 749 752 761 766 766 765 762 759 757 756 755 755 755 756 761 765 766 767 771 775 779 784 787 789 792 796 800 802 804 806 808 809 811 813 813
742 742 719 710 710 712 721 721 717 720 725 722 719 731 741 736 739 748 750 752 757 764 757 747 745 738 738 742 732 732 742 740 742 745 744 749 749 748 752 750 750 748 743 743 746 749 749 747 746 749 750 748 751 759 765 766 762 759 757 756 756 755 755 754 755 759 765 767 768 771 774 778 783 786 788 790 795 799 801 803 805 807 810 812 812 813
742 738 716 710 711 709 715 717 714 723 730 724 723 733 730 718 722 741 750 744 749 768 761 746 746 741 740 746 741 742 749 744 746 750 752 757 758 759 762 761 761 759 752 749 750 755 758 755 752 751 752 753 755 758 762 763 760 756 755 756 756 756 755 754 755 759 763 766 768 771 773 777 780 784 787 789 793 797 800 803 805 808 810 811 812 812
730 737 721 711 716 712 708 711 712 714 720 727 733 728 719 716 719 732 751 754 758 768 756 741 746 746 749 761 759 753 754 754 753 754 757 759 761 764 766 767 768 765 758 753 750 751 752 753 754 753 754 756 757 758 760 760 757 753 752 751 751 751 751 753 755 758 762 765 767 770 773 775 778 782 785 788 791 796 799 802 805 808 809 810 811 811
722 739 730 711 714 713 706 713 720 713 710 719 724 717 721 739 740 736 750 762 765 767 759 744 740 749 761 769 769 764 762 763 762 760 760 761 762 763 764 765 763 760 758 754 750 750 749 748 750 749 749 751 753 756 757 757 755 750 748 747 747 748 749 752 756 759 762 765 767 770 772 774 776 780 784 787 790 794 798 801 804 807 807 808 809 810
722 743 742 716 708 714 715 722 730 726 715 714 716 714 719 733 739 739 743 750 756 762 762 750 745 764 778 770 767 769 764 763 766 765 764 764 764 763 763 764 761 759 758 755 753 753 751 750 749 746 746 745 747 749 751 751 752 750 747 746 749 751 752 756 759 762 765 766 769 771 773 774 775 778 782 786 789 792 796 799 802 804 805 807 808 810
721 740 748 727 713 721 728 727 727 726 721 721 726 727 725 723 727 734 736 737 745 754 760 756 758 775 781 771 770 771 765 764 765 767 770 769 767 766 765 765 763 762 761 760 759 757 754 753 751 749 748 746 746 746 746 747 749 751 751 751 754 756 757 761 764 767 769 769 771 772 773 774 775 776 780 784 787 790 794 797 800 802 804 805 807 809
733 739 747 743 735 736 732 720 716 718 719 722 726 726 727 726 729 741 745 737 734 742 750 755 768 783 782 776 778 775 770 769 767 768 772 772 771 771 768 766 765 765 765 764 763 760 758 756 754 754 752 751 751 750 749 749 751 754 756 757 759 761 761 764 767 768 770 772 774 773 774 775 775 776 779 782 785 788 792 795 798 801 803 804 807 809
740 742 749 751 744 736 725 714 715 721 720 720 722 725 731 734 739 753 759 746 736 737 739 745 766 785 782 775 778 778 775 773 773 775 775 775 775 774 771 769 767 768 769 768 766 764 763 761 759 757 756 755 756 755 755 755 755 758 759 759 760 764 765 766 768 769 769 773 776 775 775 776 776 777 778 781 784 787 790 794 797 800 802 804 806 808
741 747 753 751 743 737 727 718 718 721 723 729 733 735 740 745 750 758 758 754 753 750 748 756 774 786 780 772 772 776 777 777 778 780 780 780 779 777 775 773 771 772 772 771 770 769 767 765 763 761 760 760 760 760 761 760 760 761 762 760 760 765 768 768 769 772 771 773 777 776 776 777 777 778 779 780 783 787 790 793 796 799 801 803 805 807
749 757 759 757 761 763 753 741 735 731 732 740 744 742 743 747 752 755 753 758 766 761 756 768 783 787 781 774 772 775 779 783 783 782 783 783 782 781 779 777 776 777 777 776 774 772 771 770 768 767 767 766 766 766 765 763 762 762 763 762 759 762 766 768 770 773 773 775 778 777 776 777 777 778 779 781 783 786 789 792 795 798 801 803 804 806
752 763 764 767 777 779 771 763 760 757 751 747 745 744 748 753 756 761 763 769 779 775 767 772 784 790 785 776 776 779 782 788 789 786 786 785 784 784 782 782 782 782 782 781 779 777 775 774 773 773 772 771 771 770 768 766 763 762 763 763 761 761 764 765 767 769 772 775 777 777 777 776 776 778 779 781 783 786 789 792 795 798 800 802 804 806
750 758 760 771 778 773 771 769 765 765 766 761 754 749 751 755 757 763 769 776 784 786 780 776 778 787 789 783 783 786 787 792 795 792 791 790 788 787 785 786 787 786 787 786 784 783 781 779 778 777 776 775 774 773 771 768 765 764 763 763 763 764 765 766 765 766 770 774 775 776 776 776 777 779 780 782 783 786 789 792 795 797 800 802 804 805
753 757 755 764 766 758 760 764 759 759 762 759 756 754 754 757 760 768 775 780 785 789 788 785 782 788 794 792 792 793 793 797 799 798 797 795 792 789 788 790 791 791 791 789 788 787 785 784 783 781 780 779 777 776 774 771 769 766 765 764 763 765 766 767 766 763 765 770 774 774 774 775 777 779 781 783 784 786 789 791 795 798 800 802 804 806
753 757 755 757 757 752 752 754 758 764 758 749 752 758 761 763 766 774 778 777 781 787 790 791 792 796 799 800 800 799 798 801 802 801 800 798 796 794 793 794 794 794 794 792 792 790 789 789 787 786 785 783 781 779 776 774 771 769 767 765 763 764 765 767 767 764 763 766 770 772 773 775 777 779 781 783 784 786 788 792 795 798 800 802 804 806
754 756 755 754 756 755 752 751 757 763 759 754 760 766 768 770 773 777 778 776 779 787 789 789 794 801 803 804 805 803 802 803 804 804 803 802 801 800 799 799 799 798 798 797 796 795 794 793 791 790 789 786 784 782 779 778 775 772 769 766 764 764 764 765 767 766 764 765 768 770 773 776 778 780 781 782 784 787 789 793 796 798 800 802 804 806
759 757 755 757 760 758 754 754 756 758 764 772 776 773 772 776 780 782 784 784 785 790 791 787 793 804 806 805 807 807 806 807 807 808 808 807 807 806 805 805 804 803 803 801 801 800 798 797 796 794 792 790 788 786 783 781 779 776 772 768 767 766 764 764 765 765 767 767 768 770 773 776 779 781 781 782 785 788 791 794 797 799 801 803 804 806
765 759 756 762 770 765 757 758 760 758 767 783 788 785 783 783 787 791 793 793 793 795 795 791 795 804 807 808 810 812 813 814 813 812 811 811 811 810 810 809 808 808 807 806 805 804 802 801 800 798 796 794 792 789 787 785 782 779 776 773 771 769 766 766 764 764 767 768 769 771 773 776 779 780 783 785 787 790 794 796 798 800 802 803 804 806
763 761 759 763 772 770 760 764 770 764 768 787 796 795 791 789 791 796 799 800 798 797 799 800 801 804 806 809 814 818 819 819 819 818 816 815 813 813 813 813 812 812 811 810 809 807 806 805 803 802 800 797 796 794 792 789 786 783 781 777 776 773 772 771 767 763 764 767 770 772 773 776 777 779 783 787 789 792 794 796 798 801 802 803 804 805
755 758 759 762 770 771 765 773 781 775 779 795 800 795 792 794 797 802 807 809 805 802 803 804 804 806 809 814 819 823 824 823 823 823 820 818 817 817 817 817 816 816 815 813 811 810 809 808 806 805 803 801 799 797 795 793 790 788 784 780 779 779 779 778 772 765 764 768 772 774 775 777 778 781 785 788 789 791 793 796 799 801 801 802 803 805
755 757 758 760 765 767 767 775 784 788 795 801 798 794 795 796 798 805 812 814 813 811 808 807 810 813 815 819 822 824 826 826 826 825 823 821 820 820 821 820 820 819 817 815 814 812 812 810 809 807 805 803 802 799 797 795 792 790 787 783 782 782 781 779 775 769 768 771 773 776 778 779 781 783 786 787 788 791 794 796 798 800 801 802 804 807
755 759 758 759 763 766 771 780 791 800 804 801 798 799 800 799 801 807 816 820 819 817 814 813 815 817 818 822 824 824 825 825 826 827 827 825 824 824 824 824 823 821 820 818 816 815 814 813 812 810 808 806 804 802 800 798 796 793 789 786 785 784 782 782 782 780 779 778 778 780 782 783 783 785 787 789 790 793 795 797 799 801 802 803 806 808
753 759 761 763 767 771 777 790 802 803 802 804 806 805 805 808 809 809 817 825 824 820 820 819 819 821 821 822 823 823 822 822 826 830 831 829 828 827 827 826 825 823 822 820 819 818 817 816 815 813 811 810 807 806 805 803 801 798 795 793 793 791 789 789 791 793 790 786 785 786 787 787 787 788 791 793 793 795 797 799 801 803 803 804 807 810
755 761 767 772 773 772 777 791 800 800 803 813 814 808 806 809 809 807 814 826 827 822 822 824 824 826 825 823 824 823 820 823 831 837 835 833 832 830 829 828 826 825 824 823 821 820 819 819 817 816 814 813 811 810 809 808 806 803 801 801 801 800 798 798 800 801 798 794 792 791 791 792 793 794 796 797 796 798 800 801 802 805 806 807 810 812
759 759 767 772 773 772 776 785 793 801 812 820 816 810 806 806 808 808 811 824 830 825 823 825 826 826 826 826 828 825 822 829 839 842 839 836 835 833 832 831 829 827 827 825 824 823 823 821 820 819 817 816 815 814 813 812 810 808 808 808 807 806 805 806 808 808 806 803 800 798 797 798 798 799 801 802 802 802 802 803 805 808 809 811 813 815
767 761 763 768 770 772 775 785 798 810 821 823 816 810 806 806 810 809 810 823 833 829 826 828 828 828 828 829 830 831 831 836 843 843 840 838 837 836 835 834 832 831 829 828 826 826 825 824 823 821 820 820 819 819 817 816 815 814 813 814 813 812 812 813 814 813 811 809 806 805 804 803 804 805 806 807 808 808 807 807 809 811 813 815 816 817
777 774 769 768 774 777 778 789 806 818 823 823 817 811 807 807 811 813 819 830 835 832 831 833 833 833 833 832 835 839 840 842 843 843 842 840 839 839 838 837 836 834 833 832 830 828 828 827 826 825 824 824 823 822 821 820 818 818 818 817 816 816 817 818 818 816 815 813 811 809 809 808 809 809 810 812 814 813 812 812 812 814 816 818 818 819
787 787 780 778 783 784 784 792 806 818 824 822 815 809 806 808 816 824 832 837 836 835 837 837 837 838 838 838 840 842 843 844 843 843 843 842 842 843 842 840 839 837 837 835 833 831 831 830 830 829 828 827 826 825 824 823 822 821 821 819 819 820 821 820 819 818 817 816 814 813 813 813 813 814 815 817 818 817 816 816 817 818 819 819 820 821
796 793 788 791 794 789 791 800 808 819 826 820 814 814 814 816 824 832 836 838 838 839 840 839 840 841 840 841 843 843 844 845 845 845 845 845 845 845 845 844 842 841 840 839 837 836 834 833 833 832 831 831 830 828 827 826 825 825 824 823 823 823 823 822 821 820 819 818 817 817 817 818 818 819 820 821 821 821 820 819 819 820 820 821 822 823
801 794 790 800 801 794 802 817 823 828 830 823 819 824 826 825 827 830 834 839 841 842 841 841 843 843 842 844 845 846 847 847 847 848 847 846 847 847 846 846 845 844 843 842 840 839 838 837 836 835 835 834 832 831 830 829 828 827 827 827 827 826 825 824 824 823 823 822 822 821 821 822 822 823 823 823 823 823 822 821 821 821 822 823 823 824
807 801 798 806 810 807 816 829 830 830 830 825 825 828 829 829 830 831 835 840 841 842 843 843 844 844 844 845 846 847 848 848 848 849 848 848 848 848 847 847 846 845 844 843 842 841 840 839 839 838 837 836 835 834 833 832 831 830 830 830 829 828 828 827 827 826 826 826 825 825 825 825 824 824 825 825 825 824 824 824 823 823 824 824 824 825
808 804 804 811 817 818 824 830 828 827 828 827 827 829 829 831 833 834 837 840 841 843 843 843 845 845 845 845 846 847 848 848 848 849 849 849 849 848 848 848 847 846 845 844 843 842 841 840 840 839 839 838 837 836 835 834 833 833 832 833 832 831 830 830 829 829 829 828 828 828 827 827 827 826 826 826 826 825 825 825 824 824 825 825 825 826
811 806 807 813 817 820 826 829 826 825 827 827 828 830 832 833 835 837 838 840 841 843 844 845 846 846 846 847 848 849 850 850 850 851 851 850 850 850 849 849 848 847 847 845 844 843 842 841 840 839 839 839 839 838 837 836 835 835 835 835 834 834 833 832 831 831 831 831 830 830 829 829 828 828 828 828 827 827 827 826 826 826 827 827 827 827
810 806 809 814 817 821 826 826 822 822 825 825 827 831 834 836 838 839 840 841 843 844 845 846 847 848 849 850 850 851 851 852 852 853 853 852 852 851 850 850 849 848 847 847 846 845 844 843 842 841 841 840 840 839 839 838 837 837 837 837 836 836 835 834 834 834 833 833 832 832 831 830 830 829 829 829 830 829 829 829 829 829 830 830 830 830
802 805 811 816 820 823 823 821 820 824 827 828 829 832 834 836 838 840 841 843 844 844 846 846 847 848 849 849 850 851 852 852 853 853 853 853 853 852 851 850 850 849 848 848 847 846 846 845 844 844 843 843 842 841 840 840 839 839 838 838 838 837 836 835 835 835 835 835 834 833 833 832 832 831 831 831 831 832 832 832 832 832 833 833 833 833
799 805 810 814 821 825 822 819 820 825 830 831 831 832 834 836 837 839 841 842 843 844 845 846 847 848 848 849 850 850 850 851 851 851 851 851 851 850 850 850 850 849 849 848 847 847 846 845 845 844 844 843 843 842 842 842 841 841 840 839 839 838 837 837 836 836 836 836 836 835 835 834 833 833 833 833 833 834 834 834 834 835 835 835 835 836
799 803 805 810 817 821 819 819 820 824 829 830 830 831 832 833 835 837 839 840 841 842 843 844 845 846 847 847 847 847 848 849 848 847 847 848 848 848 848 847 848 848 848 847 847 847 846 845 845 844 843 843 843 843 844 843 842 842 842 841 840 840 840 839 838 838 838 837 837 836 836 836 835 835 835 834 834 835 836 836 836 837 837 837 837 837